目前日期文章:201602 (140)

瀏覽方式: 標題列表 簡短摘要
發表時間 文章標題 人氣 留言
2016-02-29 Elastine 奢華香水洗髮精 600ml 魅惑情迷-2+甜蜜愛戀 (0) (0)
2016-02-29 Solid Design Pointed Toe Stiletto Ankle Boots (0) (0)
2016-02-29 Dior 迪奧 絕對搶眼眼妝筆(#789)(1.1g)(無盒版) (0) (0)
2016-02-29 【PSK寶絲汀】彩妝系列 纖長 濃密 捲翹-廣角睫毛膏 (0) (0)
2016-02-29 【CRP】GF抗皺修護導入劑(8ml x5瓶-盒) (0) (0)
2016-02-28 形向Xingxiang 17支 黑色 壓邊 軟皮革 磁扣式 套刷 空皮套 17YP-0002 (0) (0)
2016-02-28 Avene雅漾 緊實彈力滋養霜50ml (0) (0)
2016-02-28 CLINIQUE 倩碧水磁場自動校色CC粉凝霜SPF30-PA++ 10g(含粉盒) (0) (0)
2016-02-28 SecretKey秘密鑰匙 肌膚導入酵母精華神仙水 150ml(黑+白) (0) (0)
2016-02-28 雅詩蘭黛 微分子肌底原生露15mlX5入 (0) (0)
2016-02-27 Institut Karite Paris 巴黎乳油木抗皺精華日霜 100ml (一般膚) (0) (0)
2016-02-27 【任選】台灣工坊 魚腥草皂 (0) (0)
2016-02-27 SPEASOON 雪碧霜 - 極緻馥活柔馭露 150ml (3) (0)
2016-02-27 【IEI】星光閃靚系列-非妳不可 (1) (0)
2016-02-27 Body Temple 純有機玫瑰純露500ml (0) (0)
2016-02-26 RUNVE 玫瑰香氛水漾愛戀組.. (0) (0)
2016-02-26 Morgans PH5.5 部落客推薦潔膚組 (0) (0)
2016-02-26 【Protis普麗斯】最新3D專業牙托式牙齒美白組 (0) (0)
2016-02-26 PHYTO髮朵 麗絲護髮精油10mlx5-盒 (0) (0)
2016-02-26 SVR詩芙雅 微量元素修護保濕霜50ml (0) (0)
2016-02-25 任選-我的心機 睛艷大眼眼線膠筆-深遂綠06 (0) (0)
2016-02-25 舒妃SOFEI-摩洛哥堅果護髮霜(1000ML)超值量販組 (0) (0)
2016-02-25 Dr.Eris健髮中心指定專業組 (0) (0)
2016-02-25 【CRP】C+E活顏緊緻菁露(30ml x3) (1) (0)
2016-02-25 【CONI】黃金全能潔膚凝露150ml(買一送一) (0) (0)
2016-02-24 母子鱷魚牛皮復古氣墊涼鞋勁 (0) (0)
2016-02-24 LADUREE 糖霜柔紗粉餅蕊SPF15-PA++(10g)+盒 #10 (0) (0)
2016-02-24 AMIGO BEAUTY 蜂蜜牛奶手工皂.. (0) (0)
2016-02-24 SOFINA蘇菲娜 潤白美膚甦活露(140ml) II (0) (0)
2016-02-24 【LA ROCHE-POSAY理膚寶水】溫泉舒緩噴液(300ml x2) (0) (0)
2016-02-23 Tilley百年特莉 幸福百合香氛水竹精油擴香水(150ml) (0) (0)
2016-02-23 ANNA SUI 安娜蘇 魔法蛋糕鑰匙圈 (0) (0)
2016-02-23 CLINIQUE 倩碧 三步驟 洗面膠 200ml (3款可選) (0) (0)
2016-02-23 CLINIQUE 倩碧 能量復活晶露(200ml) (0) (0)
2016-02-23 【京都同仁堂】痠痛系列- 肌熱活絡霜4入組+ 貝思得超音波治療儀AR-381 (0) (0)
2016-02-22 GIVENCHY紀梵希 美白10次方淨化系列-喚白防曬蜜粉SPF15PA++(20g) (0) (0)
2016-02-22 3CE 超模粉底液+不能沒有你光澤頰彩乳 (0) (0)
2016-02-22 任選法國FABRE法鉑橄欖油經典馬賽皂-200g (0) (0)
2016-02-22 FORTE 芙緹 水漾柔潤粉底乳SPF25PA+++(#淺膚)(35ml) (0) (0)
2016-02-22 Jomalone 英國梨與小蒼蘭淡香水 30ml (1) (0)
2016-02-21 JILL STUART 愛戀花鑽化粧箱- (0) (0)
2016-02-21 【ENCO】pb120 日系美型足量12000mAh行動電源-送行動電源 (2) (0)
2016-02-21 LOCCITANE歐舒丹 果漾馬鞭草淡香水100ml (0) (0)
2016-02-21 Body Temple 春神來了複方純芳療精油10ml (0) (0)
2016-02-21 【Loradew 蘿拉公主】秘密魔力蝸牛BB霜2入 (2) (0)
2016-02-20 Dior 迪奧 癮誘魔力鏡光唇彩精巧版(#643)(1ml) (0) (0)
2016-02-20 美國 GONESH 線香 No.6 遠古氣息 Ancient Times 20支入 (0) (0)
2016-02-20 coni beauty 石榴充氧滋潤面膜5片-盒(買一送一) (0) (0)
2016-02-20 CLARINS克蘭詩 肌鏡光美白清透隔離乳液 SPF20 PA+++ 75ml (0) (0)
2016-02-20 【BIONEO 百妮】 杏仁酸20%美白元素(50ml)-1瓶 (0) (0)
1 23